Time,TemperatureF,DewpointF,PressureIn,WindDirection,WindDirectionDegrees,WindSpeedMPH,WindSpeedGustMPH,Humidity,HourlyPrecipIn,Conditions,Clouds,dailyrainin,SoftwareType,DateUTC
2013-01-20 00:00:00,38.3,29.4,29.83,ESE,117,0.0,0.0,70,0.00,,OVC006,0.00,VWS V14.01,2013-01-20 05:00:00,
2013-01-20 00:01:00,38.5,29.2,29.86,SSE,162,0.0,0.0,69,0.00,,BKN130,0.00,VWS V14.01,2013-01-20 05:01:00,
2013-01-20 00:10:00,38.4,29.5,29.86,SW,222,0.0,4.0,70,0.00,,BKN130,0.00,VWS V14.01,2013-01-20 05:10:00,
2013-01-20 00:20:00,38.5,29.2,29.85,WSW,239,0.0,4.0,69,0.00,,BKN130,0.00,VWS V14.01,2013-01-20 05:20:00,
2013-01-20 00:30:00,38.5,29.2,29.84,South,173,0.0,0.0,69,0.00,,BKN130,0.00,VWS V14.01,2013-01-20 05:30:00,
2013-01-20 00:40:00,38.5,29.2,29.83,WSW,252,3.0,4.0,69,0.00,,BKN130,0.00,VWS V14.01,2013-01-20 05:40:00,
2013-01-20 00:50:00,38.5,29.2,29.83,South,175,0.0,3.0,69,0.00,,BKN130,0.00,VWS V14.01,2013-01-20 05:50:00,
2013-01-20 01:00:00,37.2,29.0,29.80,SSE,157,0.0,1.0,72,0.00,,OVC006,0.00,VWS V14.01,2013-01-20 06:00:00,
2013-01-20 01:01:00,38.3,29.4,29.83,ESE,117,0.0,0.0,70,0.00,,BKN130,0.00,VWS V14.01,2013-01-20 06:01:00,
2013-01-20 01:10:00,37.8,28.9,29.83,SSE,160,0.0,0.0,70,0.00,,BKN130,0.00,VWS V14.01,2013-01-20 06:10:00,
2013-01-20 01:20:00,37.6,29.1,29.81,ESE,117,4.0,4.0,71,0.00,,BKN130,0.00,VWS V14.01,2013-01-20 06:20:00,
2013-01-20 01:30:00,37.4,28.9,29.81,SSW,205,0.0,4.0,71,0.00,,BKN130,0.00,VWS V14.01,2013-01-20 06:30:00,
2013-01-20 01:40:00,37.3,28.8,29.81,East,96,0.0,0.0,71,0.00,,BKN130,0.00,VWS V14.01,2013-01-20 06:40:00,
2013-01-20 01:50:00,37.2,29.0,29.80,SSW,209,0.0,3.0,72,0.00,,BKN130,0.00,VWS V14.01,2013-01-20 06:50:00,
2013-01-20 02:00:00,36.7,28.9,29.79,South,174,0.0,5.0,73,0.00,,OVC006,0.00,VWS V14.01,2013-01-20 07:00:00,
2013-01-20 02:01:00,37.2,29.0,29.80,SSE,157,0.0,1.0,72,0.00,,BKN130,0.00,VWS V14.01,2013-01-20 07:01:00,
2013-01-20 02:10:00,37.3,29.1,29.79,SSE,159,0.0,4.0,72,0.00,,FEW130,0.00,VWS V14.01,2013-01-20 07:10:00,
2013-01-20 02:20:00,37.5,29.3,29.79,SSE,158,0.0,7.0,72,0.00,,FEW130,0.00,VWS V14.01,2013-01-20 07:20:00,
2013-01-20 02:30:00,37.4,29.2,29.80,ENE,78,0.0,4.0,72,0.00,,FEW130,0.00,VWS V14.01,2013-01-20 07:30:00,
2013-01-20 02:40:00,37.1,28.9,29.79,SW,234,0.0,7.0,72,0.00,,FEW130,0.00,VWS V14.01,2013-01-20 07:40:00,
2013-01-20 02:50:00,36.9,29.1,29.80,SW,231,0.0,6.0,73,0.00,,FEW130,0.00,VWS V14.01,2013-01-20 07:50:00,
2013-01-20 03:00:00,34.9,28.4,29.76,SSW,192,0.0,0.0,77,0.00,,OVC006,0.00,VWS V14.01,2013-01-20 08:00:00,
2013-01-20 03:01:00,36.7,28.9,29.79,South,174,0.0,5.0,73,0.00,,FEW130,0.00,VWS V14.01,2013-01-20 08:01:00,
2013-01-20 03:10:00,36.5,29.0,29.79,SW,223,0.0,3.0,74,0.00,,BKN250,0.00,VWS V14.01,2013-01-20 08:10:00,
2013-01-20 03:20:00,36.2,28.7,29.78,NE,36,0.0,3.0,74,0.00,,BKN250,0.00,VWS V14.01,2013-01-20 08:20:00,
2013-01-20 03:30:00,35.7,28.6,29.78,SE,124,0.0,0.0,75,0.00,,BKN250,0.00,VWS V14.01,2013-01-20 08:30:00,
2013-01-20 03:40:00,35.3,28.5,29.77,South,190,0.0,0.0,76,0.00,,BKN250,0.00,VWS V14.01,2013-01-20 08:40:00,
2013-01-20 03:50:00,35.2,28.7,29.77,SSE,148,0.0,0.0,77,0.00,,BKN250,0.00,VWS V14.01,2013-01-20 08:50:00,
2013-01-20 04:00:00,34.9,28.4,29.76,SSW,192,0.0,0.0,77,0.00,,BKN250,0.00,VWS V14.01,2013-01-20 09:00:00,
2013-01-20 04:10:00,35.0,28.9,29.76,ESE,121,0.0,5.0,78,0.00,,SCT090,0.00,VWS V14.01,2013-01-20 09:10:00,
2013-01-20 04:20:00,34.9,28.8,29.75,SSW,200,0.0,6.0,78,0.00,,SCT090,0.00,VWS V14.01,2013-01-20 09:20:00,
2013-01-20 04:30:00,35.0,28.9,29.74,SW,229,0.0,5.0,78,0.00,,SCT090,0.00,VWS V14.01,2013-01-20 09:30:00,
2013-01-20 04:40:00,34.8,28.6,29.73,SW,214,0.0,5.0,78,0.00,,SCT090,0.00,VWS V14.01,2013-01-20 09:40:00,
2013-01-20 04:50:00,34.5,28.7,29.73,SSW,205,0.0,2.0,79,0.00,,SCT090,0.00,VWS V14.01,2013-01-20 09:50:00,
2013-01-20 05:00:00,33.6,28.4,29.70,West,277,0.0,4.0,81,0.00,,OVC006,0.00,VWS V14.01,2013-01-20 10:00:00,
2013-01-20 05:01:00,34.3,28.5,29.72,SSW,200,0.0,0.0,79,0.00,,SCT090,0.00,VWS V14.01,2013-01-20 10:01:00,
2013-01-20 05:10:00,34.2,28.7,29.71,WSW,242,0.0,0.0,80,0.00,,FEW090,0.00,VWS V14.01,2013-01-20 10:10:00,
2013-01-20 05:20:00,33.9,28.4,29.71,SSE,160,0.0,0.0,80,0.00,,FEW090,0.00,VWS V14.01,2013-01-20 10:20:00,
2013-01-20 05:30:00,33.9,28.4,29.70,SW,215,0.0,2.0,80,0.00,,FEW090,0.00,VWS V14.01,2013-01-20 10:30:00,
2013-01-20 05:40:00,33.6,28.4,29.70,South,170,0.0,3.0,81,0.00,,FEW090,0.00,VWS V14.01,2013-01-20 10:40:00,
2013-01-20 05:50:00,33.4,28.2,29.69,WSW,239,0.0,3.0,81,0.00,,FEW090,0.00,VWS V14.01,2013-01-20 10:50:00,
2013-01-20 06:00:00,33.9,28.4,29.68,SSW,212,1.0,5.0,80,0.00,,OVC006,0.00,VWS V14.01,2013-01-20 11:00:00,
2013-01-20 06:01:00,33.6,28.4,29.70,West,277,0.0,4.0,81,0.00,,FEW090,0.00,VWS V14.01,2013-01-20 11:01:00,
2013-01-20 06:10:00,33.4,28.2,29.69,SSW,210,2.0,3.0,81,0.00,,CLR,0.00,VWS V14.01,2013-01-20 11:10:00,
2013-01-20 06:20:00,33.5,28.3,29.68,SW,219,0.0,2.0,81,0.00,,CLR,0.00,VWS V14.01,2013-01-20 11:20:00,
2013-01-20 06:30:00,33.7,28.5,29.68,SSW,197,1.0,5.0,81,0.00,,CLR,0.00,VWS V14.01,2013-01-20 11:30:00,
2013-01-20 06:40:00,33.6,28.1,29.67,WSW,252,0.0,4.0,80,0.00,,CLR,0.00,VWS V14.01,2013-01-20 11:40:00,
2013-01-20 06:50:00,33.7,28.2,29.67,West,276,1.0,4.0,80,0.00,,CLR,0.00,VWS V14.01,2013-01-20 11:50:00,
2013-01-20 07:00:00,35.8,28.7,29.66,West,277,2.0,10.0,75,0.00,,OVC006,0.00,VWS V14.01,2013-01-20 12:00:00,
2013-01-20 07:01:00,33.9,28.4,29.68,SSW,212,1.0,5.0,80,0.00,,CLR,0.00,VWS V14.01,2013-01-20 12:01:00,
2013-01-20 07:10:00,33.9,28.4,29.67,SSW,207,3.0,6.0,80,0.00,,FEW250,0.00,VWS V14.01,2013-01-20 12:10:00,
2013-01-20 07:20:00,34.5,28.4,29.66,SSW,198,3.0,7.0,78,0.00,,FEW250,0.00,VWS V14.01,2013-01-20 12:20:00,
2013-01-20 07:30:00,34.9,28.4,29.66,SW,219,1.0,10.0,77,0.00,,FEW250,0.00,VWS V14.01,2013-01-20 12:30:00,
2013-01-20 07:40:00,35.2,28.4,29.66,West,263,4.0,9.0,76,0.00,,FEW250,0.00,VWS V14.01,2013-01-20 12:40:00,
2013-01-20 07:50:00,35.5,28.7,29.66,WNW,298,1.0,9.0,76,0.00,,FEW250,0.00,VWS V14.01,2013-01-20 12:50:00,
2013-01-20 08:00:00,39.5,29.8,29.67,SW,236,3.0,10.0,68,0.00,,OVC006,0.00,VWS V14.01,2013-01-20 13:00:00,
2013-01-20 08:01:00,35.8,28.7,29.66,West,277,2.0,10.0,75,0.00,,FEW250,0.00,VWS V14.01,2013-01-20 13:01:00,
2013-01-20 08:10:00,36.0,28.5,29.67,WSW,253,2.0,6.0,74,0.00,,FEW250,0.00,VWS V14.01,2013-01-20 13:10:00,
2013-01-20 08:20:00,36.5,28.7,29.66,SW,232,4.0,10.0,73,0.00,,FEW250,0.00,VWS V14.01,2013-01-20 13:20:00,
2013-01-20 08:30:00,37.4,29.2,29.67,SSW,211,3.0,9.0,72,0.00,,FEW250,0.00,VWS V14.01,2013-01-20 13:30:00,
2013-01-20 08:40:00,38.0,29.5,29.67,SE,144,5.0,6.0,71,0.00,,FEW250,0.00,VWS V14.01,2013-01-20 13:40:00,
2013-01-20 08:50:00,38.8,29.9,29.67,WNW,290,7.0,10.0,70,0.00,,FEW250,0.00,VWS V14.01,2013-01-20 13:50:00,
2013-01-20 09:00:00,42.9,30.8,29.66,SSW,212,4.0,16.0,62,0.00,,OVC006,0.00,VWS V14.01,2013-01-20 14:00:00,
2013-01-20 09:01:00,39.5,29.8,29.67,SW,236,3.0,10.0,68,0.00,,FEW250,0.00,VWS V14.01,2013-01-20 14:01:00,
2013-01-20 09:10:00,40.2,29.8,29.67,WSW,245,0.0,13.0,66,0.00,,FEW250,0.00,VWS V14.01,2013-01-20 14:10:00,
2013-01-20 09:20:00,40.5,30.0,29.66,SW,221,3.0,12.0,66,0.00,,FEW250,0.00,VWS V14.01,2013-01-20 14:20:00,
2013-01-20 09:30:00,40.9,30.1,29.66,South,184,2.0,12.0,65,0.00,,FEW250,0.00,VWS V14.01,2013-01-20 14:30:00,
2013-01-20 09:40:00,41.3,30.1,29.66,SSW,211,3.0,13.0,64,0.00,,FEW250,0.00,VWS V14.01,2013-01-20 14:40:00,
2013-01-20 09:50:00,42.2,30.5,29.66,South,186,4.0,10.0,63,0.00,,FEW250,0.00,VWS V14.01,2013-01-20 14:50:00,
2013-01-20 10:00:00,45.3,30.5,29.63,WSW,249,10.0,15.0,56,0.04,,OVC006,0.04,VWS V14.01,2013-01-20 15:00:00,
2013-01-20 10:01:00,42.9,30.8,29.66,SSW,212,4.0,16.0,62,0.00,,FEW250,0.00,VWS V14.01,2013-01-20 15:01:00,
2013-01-20 10:10:00,43.5,30.5,29.65,WSW,238,4.0,15.0,60,0.01,,BKN250,0.01,VWS V14.01,2013-01-20 15:10:00,
2013-01-20 10:20:00,44.0,30.6,29.64,SW,221,9.0,14.0,59,0.02,,BKN250,0.02,VWS V14.01,2013-01-20 15:20:00,
2013-01-20 10:30:00,46.2,30.9,29.61,SSW,205,4.0,12.0,55,0.03,,OVC006,0.05,VWS V14.01,2013-01-20 15:30:00,
2013-01-20 10:31:00,44.5,30.7,29.64,SW,228,5.0,16.0,58,0.02,,BKN250,0.02,VWS V14.01,2013-01-20 15:31:00,
2013-01-20 10:40:00,45.0,30.7,29.63,SW,231,3.0,14.0,57,0.03,,BKN250,0.03,VWS V14.01,2013-01-20 15:40:00,
2013-01-20 10:50:00,45.1,30.8,29.63,South,184,6.0,13.0,57,0.03,,BKN250,0.03,VWS V14.01,2013-01-20 15:50:00,
2013-01-20 11:00:00,45.3,30.5,29.63,WSW,249,10.0,15.0,56,0.04,,BKN250,0.04,VWS V14.01,2013-01-20 16:00:00,
2013-01-20 11:10:00,45.7,31.4,29.62,WSW,256,4.0,13.0,57,0.04,,BKN250,0.04,VWS V14.01,2013-01-20 16:10:00,
2013-01-20 11:20:00,46.1,30.9,29.62,NNW,334,3.0,15.0,55,0.04,,BKN250,0.05,VWS V14.01,2013-01-20 16:20:00,
2013-01-20 11:30:00,46.2,30.9,29.61,SSW,205,4.0,12.0,55,0.03,,BKN250,0.05,VWS V14.01,2013-01-20 16:30:00,
2013-01-20 11:40:00,45.9,31.1,29.61,West,276,6.0,13.0,56,0.03,,BKN250,0.05,VWS V14.01,2013-01-20 16:40:00,
2013-01-20 11:50:00,45.9,30.7,29.60,WSW,246,3.0,12.0,55,0.02,,BKN250,0.05,VWS V14.01,2013-01-20 16:50:00,
2013-01-20 12:00:00,46.1,30.4,29.60,SW,235,4.0,18.0,54,0.00,,OVC006,0.05,VWS V14.01,2013-01-20 17:00:00,
2013-01-20 12:01:00,46.1,31.3,29.60,WSW,242,10.0,11.0,56,0.02,,BKN250,0.05,VWS V14.01,2013-01-20 17:01:00,
2013-01-20 12:10:00,46.4,30.7,29.60,SW,218,7.0,14.0,54,0.01,,BKN220,0.05,VWS V14.01,2013-01-20 17:10:00,
2013-01-20 12:20:00,47.1,30.9,29.60,SW,222,1.0,11.0,53,0.01,,BKN220,0.05,VWS V14.01,2013-01-20 17:20:00,
2013-01-20 12:30:00,45.7,30.5,29.61,WNW,300,3.0,9.0,55,0.00,,OVC006,0.05,VWS V14.01,2013-01-20 17:30:00,
2013-01-20 12:31:00,47.2,31.0,29.60,WSW,239,4.0,14.0,53,0.00,,BKN220,0.05,VWS V14.01,2013-01-20 17:31:00,
2013-01-20 12:40:00,46.8,30.6,29.60,NW,313,3.0,15.0,53,0.00,,BKN220,0.05,VWS V14.01,2013-01-20 17:40:00,
2013-01-20 12:50:00,46.4,30.2,29.59,West,259,4.0,11.0,53,0.00,,BKN220,0.05,VWS V14.01,2013-01-20 17:50:00,
2013-01-20 13:00:00,45.2,31.7,29.63,NNW,331,5.0,6.0,59,0.00,,OVC006,0.05,VWS V14.01,2013-01-20 18:00:00,
2013-01-20 13:01:00,46.1,30.4,29.60,SW,235,4.0,18.0,54,0.00,,BKN220,0.05,VWS V14.01,2013-01-20 18:01:00,
2013-01-20 13:10:00,45.8,30.1,29.60,WNW,302,2.0,10.0,54,0.00,,BKN070,0.05,VWS V14.01,2013-01-20 18:10:00,
2013-01-20 13:20:00,45.7,30.5,29.61,WNW,288,3.0,8.0,55,0.00,,BKN070,0.05,VWS V14.01,2013-01-20 18:20:00,
2013-01-20 13:30:00,45.7,30.5,29.61,WNW,300,3.0,9.0,55,0.00,,BKN070,0.05,VWS V14.01,2013-01-20 18:30:00,
2013-01-20 13:40:00,45.3,31.8,29.62,NW,325,4.0,9.0,59,0.00,,BKN070,0.05,VWS V14.01,2013-01-20 18:40:00,
2013-01-20 13:50:00,45.3,32.2,29.62,NW,306,5.0,8.0,60,0.00,,BKN070,0.05,VWS V14.01,2013-01-20 18:50:00,
2013-01-20 14:00:00,46.7,16.9,29.65,WSW,242,6.0,18.0,30,0.00,,OVC006,0.05,VWS V14.01,2013-01-20 19:00:00,
2013-01-20 14:01:00,45.2,31.7,29.63,NNW,331,5.0,6.0,59,0.00,,BKN070,0.05,VWS V14.01,2013-01-20 19:01:00,
2013-01-20 14:10:00,46.0,32.1,29.63,West,276,2.0,5.0,58,0.00,,BKN250,0.05,VWS V14.01,2013-01-20 19:10:00,
2013-01-20 14:20:00,46.2,31.4,29.63,WSW,245,3.0,11.0,56,0.00,,BKN250,0.05,VWS V14.01,2013-01-20 19:20:00,
2013-01-20 14:30:00,46.4,31.1,29.64,West,262,0.0,7.0,55,0.00,,BKN250,0.05,VWS V14.01,2013-01-20 19:30:00,
2013-01-20 14:40:00,46.9,30.2,29.64,WNW,287,6.0,8.0,52,0.00,,BKN250,0.05,VWS V14.01,2013-01-20 19:40:00,
2013-01-20 14:50:00,47.1,23.4,29.65,West,273,4.0,11.0,39,0.00,,BKN250,0.05,VWS V14.01,2013-01-20 19:50:00,
2013-01-20 15:00:00,44.8,14.5,29.70,WNW,300,3.0,12.0,29,0.00,,OVC006,0.05,VWS V14.01,2013-01-20 20:00:00,
2013-01-20 15:01:00,46.7,16.9,29.65,WSW,242,6.0,18.0,30,0.00,,BKN250,0.05,VWS V14.01,2013-01-20 20:01:00,
2013-01-20 15:10:00,46.4,15.1,29.67,West,264,6.0,16.0,28,0.00,,SCT200,0.05,VWS V14.01,2013-01-20 20:10:00,
2013-01-20 15:20:00,46.1,15.6,29.67,WNW,284,3.0,14.0,29,0.00,,SCT200,0.05,VWS V14.01,2013-01-20 20:20:00,
2013-01-20 15:30:00,42.5,13.3,29.72,WNW,293,3.0,14.0,30,0.00,,OVC006,0.05,VWS V14.01,2013-01-20 20:30:00,
2013-01-20 15:31:00,45.7,15.3,29.68,WSW,245,19.0,19.0,29,0.00,,SCT200,0.05,VWS V14.01,2013-01-20 20:31:00,
2013-01-20 15:40:00,45.2,14.9,29.69,West,261,9.0,19.0,29,0.00,,SCT200,0.05,VWS V14.01,2013-01-20 20:40:00,
2013-01-20 15:50:00,45.1,14.8,29.69,WNW,293,3.0,11.0,29,0.00,,SCT200,0.05,VWS V14.01,2013-01-20 20:50:00,
2013-01-20 16:00:00,44.8,14.5,29.70,WNW,300,3.0,12.0,29,0.00,,SCT200,0.05,VWS V14.01,2013-01-20 21:00:00,
2013-01-20 16:10:00,43.9,12.9,29.71,West,277,19.0,21.0,28,0.00,,SCT200,0.05,VWS V14.01,2013-01-20 21:10:00,
2013-01-20 16:20:00,43.2,13.9,29.72,NNE,18,4.0,19.0,30,0.00,,SCT200,0.05,VWS V14.01,2013-01-20 21:20:00,
2013-01-20 16:30:00,42.5,13.3,29.72,WNW,293,3.0,14.0,30,0.00,,SCT200,0.05,VWS V14.01,2013-01-20 21:30:00,
2013-01-20 16:40:00,40.3,17.3,29.74,NNW,336,4.0,11.0,39,0.00,,SCT200,0.05,VWS V14.01,2013-01-20 21:40:00,
2013-01-20 16:50:00,38.4,17.9,29.75,NW,304,6.0,16.0,43,0.00,,SCT200,0.05,VWS V14.01,2013-01-20 21:50:00,
2013-01-20 17:00:00,33.3,17.6,29.81,NNW,335,3.0,13.0,52,0.00,,OVC006,0.05,VWS V14.01,2013-01-20 22:00:00,
2013-01-20 17:01:00,37.1,18.2,29.75,NW,316,16.0,16.0,46,0.00,,SCT200,0.05,VWS V14.01,2013-01-20 22:01:00,
2013-01-20 17:10:00,36.3,18.5,29.76,NW,326,6.0,14.0,48,0.00,,SCT200,0.05,VWS V14.01,2013-01-20 22:10:00,
2013-01-20 17:20:00,35.8,18.0,29.77,WNW,288,3.0,14.0,48,0.00,,SCT200,0.05,VWS V14.01,2013-01-20 22:20:00,
2013-01-20 17:30:00,35.1,18.4,29.78,NNW,330,5.0,9.0,50,0.00,,SCT200,0.05,VWS V14.01,2013-01-20 22:30:00,
2013-01-20 17:40:00,34.3,18.1,29.79,NW,325,6.0,20.0,51,0.00,,SCT200,0.05,VWS V14.01,2013-01-20 22:40:00,
2013-01-20 17:50:00,33.8,18.0,29.80,WNW,294,5.0,12.0,52,0.00,,SCT200,0.05,VWS V14.01,2013-01-20 22:50:00,
2013-01-20 18:00:00,31.1,17.2,29.84,West,271,0.0,14.0,56,0.00,,OVC006,0.05,VWS V14.01,2013-01-20 23:00:00,
2013-01-20 18:01:00,33.3,17.6,29.81,NNW,335,3.0,13.0,52,0.00,,SCT200,0.05,VWS V14.01,2013-01-20 23:01:00,
2013-01-20 18:10:00,32.9,17.7,29.82,NW,320,8.0,12.0,53,0.00,,CLR,0.05,VWS V14.01,2013-01-20 23:10:00,
2013-01-20 18:20:00,32.5,17.3,29.82,NW,320,4.0,13.0,53,0.00,,CLR,0.05,VWS V14.01,2013-01-20 23:20:00,
2013-01-20 18:30:00,32.1,17.3,29.83,NW,319,5.0,11.0,54,0.00,,CLR,0.05,VWS V14.01,2013-01-20 23:30:00,
2013-01-20 18:40:00,31.7,17.0,29.83,NW,309,4.0,10.0,54,0.00,,CLR,0.05,VWS V14.01,2013-01-20 23:40:00,
2013-01-20 18:50:00,31.4,17.1,29.83,WNW,283,3.0,12.0,55,0.00,,CLR,0.05,VWS V14.01,2013-01-20 23:50:00,
2013-01-20 19:00:00,28.9,14.8,29.88,NW,309,4.0,11.0,55,0.00,,OVC006,0.05,VWS V14.01,2013-01-21 00:00:00,
2013-01-20 19:01:00,31.1,17.2,29.84,West,271,0.0,14.0,56,0.00,,CLR,0.05,VWS V14.01,2013-01-21 00:01:00,
2013-01-20 19:10:00,30.8,17.0,29.85,WNW,303,1.0,14.0,56,0.00,,CLR,0.05,VWS V14.01,2013-01-21 00:10:00,
2013-01-20 19:20:00,30.5,16.7,29.85,WSW,254,1.0,7.0,56,0.00,,CLR,0.05,VWS V14.01,2013-01-21 00:20:00,
2013-01-20 19:30:00,30.0,15.8,29.86,WNW,283,4.0,11.0,55,0.00,,CLR,0.05,VWS V14.01,2013-01-21 00:30:00,
2013-01-20 19:40:00,29.5,15.8,29.87,NNW,337,4.0,8.0,56,0.00,,CLR,0.05,VWS V14.01,2013-01-21 00:40:00,
2013-01-20 19:50:00,29.2,15.1,29.88,NW,318,5.0,12.0,55,0.00,,CLR,0.05,VWS V14.01,2013-01-21 00:50:00,
2013-01-20 20:00:00,27.3,14.1,29.91,WNW,297,3.0,10.0,57,0.00,,OVC006,0.05,VWS V14.01,2013-01-21 01:00:00,
2013-01-20 20:01:00,28.9,14.8,29.88,NW,309,4.0,11.0,55,0.00,,CLR,0.05,VWS V14.01,2013-01-21 01:01:00,
2013-01-20 20:10:00,28.6,14.9,29.89,NW,307,6.0,9.0,56,0.00,,CLR,0.05,VWS V14.01,2013-01-21 01:10:00,
2013-01-20 20:20:00,28.3,14.6,29.89,NW,305,1.0,9.0,56,0.00,,CLR,0.05,VWS V14.01,2013-01-21 01:20:00,
2013-01-20 20:30:00,28.1,14.4,29.90,WNW,291,5.0,14.0,56,0.00,,CLR,0.05,VWS V14.01,2013-01-21 01:30:00,
2013-01-20 20:40:00,27.8,14.2,29.90,WSW,255,3.0,11.0,56,0.00,,CLR,0.05,VWS V14.01,2013-01-21 01:40:00,
2013-01-20 20:50:00,27.5,13.9,29.91,NW,322,6.0,10.0,56,0.00,,CLR,0.05,VWS V14.01,2013-01-21 01:50:00,
2013-01-20 21:00:00,26.1,13.4,29.94,WNW,300,2.0,4.0,58,0.00,,OVC006,0.05,VWS V14.01,2013-01-21 02:00:00,
2013-01-20 21:01:00,27.3,14.1,29.91,WNW,297,3.0,10.0,57,0.00,,CLR,0.05,VWS V14.01,2013-01-21 02:01:00,
2013-01-20 21:10:00,27.1,13.9,29.92,NW,314,2.0,8.0,57,0.00,,CLR,0.05,VWS V14.01,2013-01-21 02:10:00,
2013-01-20 21:20:00,26.9,13.7,29.92,NNW,328,4.0,12.0,57,0.00,,CLR,0.05,VWS V14.01,2013-01-21 02:20:00,
2013-01-20 21:30:00,26.7,13.5,29.93,WNW,295,3.0,10.0,57,0.00,,CLR,0.05,VWS V14.01,2013-01-21 02:30:00,
2013-01-20 21:40:00,26.6,13.0,29.93,West,267,3.0,9.0,56,0.00,,CLR,0.05,VWS V14.01,2013-01-21 02:40:00,
2013-01-20 21:50:00,26.4,13.2,29.94,NNW,328,3.0,10.0,57,0.00,,CLR,0.05,VWS V14.01,2013-01-21 02:50:00,
2013-01-20 22:00:00,25.0,11.5,29.95,NW,314,2.0,8.0,56,0.00,,OVC006,0.05,VWS V14.01,2013-01-21 03:00:00,
2013-01-20 22:01:00,26.1,13.4,29.94,WNW,300,2.0,4.0,58,0.00,,CLR,0.05,VWS V14.01,2013-01-21 03:01:00,
2013-01-20 22:10:00,25.9,13.2,29.94,WNW,292,0.0,6.0,58,0.00,,CLR,0.05,VWS V14.01,2013-01-21 03:10:00,
2013-01-20 22:20:00,25.7,12.2,29.94,WNW,302,3.0,8.0,56,0.00,,CLR,0.05,VWS V14.01,2013-01-21 03:20:00,
2013-01-20 22:30:00,25.5,12.4,29.95,WNW,289,2.0,6.0,57,0.00,,CLR,0.05,VWS V14.01,2013-01-21 03:30:00,
2013-01-20 22:40:00,25.4,11.5,29.95,NNW,328,2.0,9.0,55,0.00,,CLR,0.05,VWS V14.01,2013-01-21 03:40:00,
2013-01-20 22:50:00,25.1,11.6,29.95,WNW,285,2.0,5.0,56,0.00,,CLR,0.05,VWS V14.01,2013-01-21 03:50:00,
2013-01-20 23:00:00,24.0,9.8,29.94,WNW,285,1.0,12.0,54,0.00,,OVC006,0.05,VWS V14.01,2013-01-21 04:00:00,
2013-01-20 23:01:00,25.0,11.5,29.95,NW,314,2.0,8.0,56,0.00,,CLR,0.05,VWS V14.01,2013-01-21 04:01:00,
2013-01-20 23:10:00,24.9,11.0,29.95,NNW,329,6.0,10.0,55,0.00,,CLR,0.05,VWS V14.01,2013-01-21 04:10:00,
2013-01-20 23:20:00,24.6,11.2,29.94,NNW,334,5.0,9.0,56,0.00,,CLR,0.05,VWS V14.01,2013-01-21 04:20:00,
2013-01-20 23:30:00,24.4,11.0,29.94,NW,304,3.0,13.0,56,0.00,,CLR,0.05,VWS V14.01,2013-01-21 04:30:00,
2013-01-20 23:40:00,24.2,11.2,29.94,WNW,300,3.0,11.0,57,0.00,,CLR,0.05,VWS V14.01,2013-01-21 04:40:00,
2013-01-20 23:50:00,24.0,10.2,29.94,NW,314,6.0,11.0,55,0.00,,CLR,0.05,VWS V14.01,2013-01-21 04:50:00,